Regional Weather Roundup
Issued by NWS Newport/Morehead, NC

Current Version | Previous Version | Text Only | Print | Product List | Glossary Off
Versions: 1 2 3 4 5 6 7 8 9 10 11 12 13 14 15 16 17 18 19 20 21 22 23 24 25 26 27 28 29 30 31 32 33 34 35 36 37 38 39 40 41 42 43 44 45 46 47 48 49 50
000 ASUS42 KMHX 061912 RWRMHX WEATHER ROUNDUP FOR EASTERN NORTH CAROLINA NATIONAL WEATHER SERVICE NEWPORT/MOREHEAD CITY NC 200 PM EST FRI MAR 06 2015 NOTE: "FAIR" INDICATES FEW OR NO CLOUDS BELOW 12,000 FEET WITH NO SIGNIFICANT WEATHER AND/OR OBSTRUCTIONS TO VISIBILITY NCZ015>017-031-032-045>047-102-103-062000- NORTH COAST CITY SKY/WX TMP DP RH WIND PRES REMARKS EDENTON SUNNY 34 19 54 NE12 30.45F ELIZABETH CITY SUNNY 31 20 63 N14 30.46F KITTY HAWK CLOUDY 29 22 76 N13G23 30.42F WCI 18 MANTEO CLOUDY 29 22 75 N18G28 30.44F WCI 16 $$ NCZ045>047-081-094-103-104-062000- CENTRAL COAST CITY SKY/WX TMP DP RH WIND PRES REMARKS FRISCO CLOUDY 31 25 78 N12G29 30.38F SWANQUARTER N/A 32 N/A N/A N12G22 30.39S $$ NCZ095-097-098-100-101-062000- SOUTHERN COAST CITY SKY/WX TMP DP RH WIND PRES REMARKS BEAUFORT CLOUDY 37 23 56 N15G24 30.39F CEDAR ISLAND N/A 34 N/A N/A N16G28 30.44S JACKSONVILLE SUNNY 40 22 48 N12 30.39F PINEY ISLAND N/A N/A N/A N/A MISG 30.40F WILMINGTON CLOUDY 42 25 50 NW10 30.39F $$ NCZ011>013-027>030-043-044-078>080-089-090>093-098-062000- COASTAL PLAIN CITY SKY/WX TMP DP RH WIND PRES REMARKS AHOSKIE NOT AVBL CLINTON SUNNY 38 19 47 N10G16 30.43F ELIZABETHTOWN SUNNY 40 17 38 NE6 30.41F GOLDSBORO SUNNY 35 23 60 NE8 30.42F GREENVILLE SUNNY 36 19 51 N9 30.45F HAVELOCK CLOUDY 39 20 46 N16 30.41F KENANSVILLE SUNNY 37 19 47 N9 30.44F KINSTON SUNNY 37 21 52 N12 30.44F NEW BERN CLOUDY 40 21 46 N13 30.42F RICHLANDS SUNNY 39 21 48 N9G17 30.41F ROCKY MOUNT SUNNY 35 16 45 N10 30.46F WASHINGTON SUNNY 34 20 56 N13 30.44F WHITEVILLE SUNNY 42 18 38 N7 30.39F $$ AMZ130-135-150-152-154-156-158-170-250-252-270-ANZ085-086-088-633-658-670-062000- MARINE OBSERVATIONS STATION/POSITION TIME TEMP WIND PRES WAVE SWELL AIR SEA DIR/SP/G HT/PER HT/PER (UTC) (F) (DEG/KT/KT) (MB) (FT/S) (FT/S) CHESAPEAKE LIGHT 1800 23 360/ 17/ 19 1033.4 64 E VA BEACH 1850 36 51 360/ 23/ 27 1028.5 8/ 8 DUCK 1800 25 35 350/ 23/ 26 1030.2 2 E DUCK 1811 35 N/A 7/ 8 2/11 10 NE DUCK 1822 37 N/A 8/ 8 2/11 OREGON INLET 1800 29 38 340/ 18/ 27 1030.6 HATTERAS CG 1800 31 43 360/ 28/ 32 1029.8 CAPE LOOKOUT 1800 10/ 16/ 21 1029.5 BEAUFORT LAB 1800 34 47 10/ 15/ 21 1029.0 27 SE WRIGHTSVLE NOT AVBL 5 SE WRIGHTSVLE NOT AVBL 225 S CAPE HAT 1850 64 72 40/ 19/ 23 1021.6 9/10 7/10 41 SE CHARLESTON 1850 44 67 30/ 23/ 29 1026.5 10/ 7 5/16 $$

USA.gov is the U.S. government's official web portal to all federal, state and local government web resources and services.